Mount Carmel, IL

1:48 PM CST on November 20, 2017 (GMT -0600)
Mount Carmel Municipal

Weather History for KAJG - March, 2013

Change the Weather History Date:

Wednesday, March 13, 2013

  Actual Average (KLWV) Record (KLWV)
Temperature  
Mean Temperature 32 °F -  
Max Temperature 35 °F 49 °F 81 °F (2007)
Min Temperature 28 °F 30 °F 20 °F (1992)
Degree Days  
Heating Degree Days 34    
Moisture  
Dew Point 24 °F    
Average Humidity 70    
Maximum Humidity 93    
Minimum Humidity 56    
Precipitation  
Precipitation 0.00 in - - ()
Sea Level Pressure  
Sea Level Pressure 30.31 in    
Wind  
Wind Speed 14 mph (NW)    
Max Wind Speed 26 mph    
Max Gust Speed 38 mph    
Visibility 10 miles    
Events Snow    
Averages and records for this station are not official NWS values.
T = Trace of Precipitation, MM = Missing Value Source: NWS Daily Summary

Daily Weather History Graph

Daily Weather History Graph

Search for Another Location

Airport or City:

Trip Planner

Search our weather history database for the weather conditions in past years. The results will help you decide how hot, cold, wet, or windy it might be!

Date:

Astronomy

Mar. 13, 2013 Rise Set
Actual Time 7:04 AM CDT 6:56 PM CDT
Civil Twilight 6:38 AM CDT 7:22 PM CDT
Nautical Twilight 6:07 AM CDT 7:53 PM CDT
Astronomical Twilight 5:36 AM CDT 8:24 PM CDT
Moon 7:46 AM CDT (3/13) 9:10 PM CDT (3/13)
Length of Visible Light 12h 44m
Length of Day
11h 51m
Waxing Crescent, 4% of the Moon is Illuminated
Mar 13
Waxing Crescent
Mar 19
First Quarter
Mar 27
Full
Apr 2
Last Quarter
Apr 10
New

Hourly Weather History & Observations

Time (CDT) Temp. Windchill Dew Point Humidity Pressure Visibility Wind Dir Wind Speed Gust Speed Precip Events Conditions
12:55 AM 35.6 °F 27.5 °F 28.4 °F 75% 30.14 in 10.0 mi WNW 11.5 mph - N/A   Overcast
1:15 AM 35.6 °F 26.2 °F 28.4 °F 75% 30.14 in 10.0 mi WNW 15.0 mph 29.9 mph N/A   Overcast
1:35 AM 35.6 °F 23.2 °F 28.4 °F 75% 30.14 in 10.0 mi WNW 26.5 mph 38.0 mph N/A   Overcast
1:55 AM 32.0 °F 20.8 °F 28.4 °F 87% 30.15 in 7.0 mi NW 17.3 mph 25.3 mph N/A Snow Light Snow
2:15 AM 33.8 °F 23.2 °F 28.4 °F 81% 30.16 in 10.0 mi WNW 17.3 mph - N/A   Overcast
2:35 AM 33.8 °F 23.5 °F 26.6 °F 75% 30.16 in 10.0 mi WNW 16.1 mph 25.3 mph N/A   Overcast
2:55 AM 33.8 °F 23.9 °F 26.6 °F 75% 30.15 in 10.0 mi WNW 15.0 mph 19.6 mph N/A   Mostly Cloudy
3:15 AM 32.0 °F 21.2 °F 24.8 °F 75% 30.15 in 10.0 mi WNW 16.1 mph - N/A   Mostly Cloudy
4:55 AM 32.0 °F 23.6 °F 23.0 °F 69% 30.18 in 10.0 mi WNW 10.4 mph - N/A   Clear
5:15 AM 32.0 °F 22.1 °F 23.0 °F 69% 30.19 in 10.0 mi WNW 13.8 mph - N/A   Scattered Clouds
5:35 AM 32.0 °F 20.1 °F 23.0 °F 69% 30.19 in 10.0 mi WNW 19.6 mph 25.3 mph N/A   Mostly Cloudy
5:55 AM 32.0 °F 21.2 °F 23.0 °F 69% 30.20 in 10.0 mi NW 16.1 mph 23.0 mph N/A   Overcast
6:15 AM 30.2 °F 17.8 °F 21.2 °F 69% 30.21 in 10.0 mi WNW 19.6 mph 28.8 mph N/A   Scattered Clouds
6:35 AM 30.2 °F 19.3 °F 23.0 °F 75% 30.22 in 10.0 mi WNW 15.0 mph 20.7 mph N/A   Scattered Clouds
6:55 AM 30.2 °F 18.5 °F 23.0 °F 75% 30.22 in 10.0 mi WNW 17.3 mph 26.5 mph N/A Snow Light Snow
7:35 AM 30.2 °F 19.8 °F 21.2 °F 69% 30.23 in 10.0 mi NW 13.8 mph - N/A   Scattered Clouds
7:55 AM 30.2 °F 19.8 °F 21.2 °F 69% 30.25 in 10.0 mi NW 13.8 mph - N/A   Clear
8:15 AM 32.0 °F 21.6 °F 21.2 °F 64% 30.25 in 10.0 mi WNW 15.0 mph 18.4 mph N/A   Clear
8:35 AM 32.0 °F 21.6 °F 21.2 °F 64% 30.26 in 10.0 mi NW 15.0 mph 24.2 mph N/A   Clear
8:55 AM 32.0 °F 20.1 °F 21.2 °F 64% 30.27 in 10.0 mi WNW 19.6 mph - N/A   Mostly Cloudy
9:15 AM 32.0 °F 20.8 °F 23.0 °F 69% 30.28 in 10.0 mi WNW 17.3 mph 23.0 mph N/A   Overcast
9:35 AM 32.0 °F 20.5 °F 21.2 °F 64% 30.29 in 10.0 mi NW 18.4 mph 23.0 mph N/A   Mostly Cloudy
9:55 AM 32.0 °F 20.8 °F 21.2 °F 64% 30.29 in 10.0 mi NW 17.3 mph 21.9 mph N/A   Scattered Clouds
10:15 AM 32.0 °F 20.5 °F 21.2 °F 64% 30.30 in 10.0 mi NW 18.4 mph 21.9 mph N/A   Scattered Clouds
10:35 AM 32.0 °F 21.2 °F 21.2 °F 64% 30.31 in 10.0 mi NW 16.1 mph 20.7 mph N/A   Scattered Clouds
10:55 AM 33.8 °F 23.2 °F 21.2 °F 60% 30.32 in 10.0 mi NW 17.3 mph 28.8 mph N/A   Mostly Cloudy
11:15 AM 33.8 °F 23.2 °F 19.4 °F 56% 30.32 in 10.0 mi NNW 17.3 mph 24.2 mph N/A   Mostly Cloudy
11:35 AM 32.0 °F 21.6 °F 23.0 °F 69% 30.34 in 7.0 mi NW 15.0 mph 21.9 mph N/A Snow Light Snow
11:55 AM 33.8 °F 23.5 °F 19.4 °F 56% 30.34 in 10.0 mi NW 16.1 mph 23.0 mph N/A   Mostly Cloudy
12:15 PM 32.0 °F 20.5 °F 23.0 °F 69% 30.35 in 10.0 mi WNW 18.4 mph - N/A Snow Light Snow
12:35 PM 33.8 °F 23.5 °F 24.8 °F 70% 30.35 in 7.0 mi NW 16.1 mph 20.7 mph N/A Snow Light Snow
12:55 PM 32.0 °F 20.5 °F 23.0 °F 69% 30.36 in 10.0 mi WNW 18.4 mph - N/A Snow Light Snow
1:15 PM 32.0 °F 22.1 °F 23.0 °F 69% 30.36 in 10.0 mi NW 13.8 mph 21.9 mph N/A Snow Light Snow
1:35 PM 33.8 °F 24.3 °F 23.0 °F 65% 30.36 in 7.0 mi WNW 13.8 mph 23.0 mph N/A   Overcast
1:55 PM 33.8 °F 23.5 °F 23.0 °F 65% 30.36 in 10.0 mi NW 16.1 mph 24.2 mph N/A   Overcast
2:15 PM 33.8 °F 24.8 °F 23.0 °F 65% 30.36 in 10.0 mi NW 12.7 mph 23.0 mph N/A   Overcast
2:35 PM 33.8 °F 22.5 °F 23.0 °F 65% 30.36 in 10.0 mi WNW 19.6 mph - N/A   Overcast
2:55 PM 33.8 °F 23.9 °F 23.0 °F 65% 30.36 in 10.0 mi NW 15.0 mph 19.6 mph N/A   Overcast
3:15 PM 33.8 °F 23.9 °F 23.0 °F 65% 30.37 in 10.0 mi NW 15.0 mph 23.0 mph N/A   Overcast
3:35 PM 33.8 °F 23.9 °F 23.0 °F 65% 30.37 in 10.0 mi WNW 15.0 mph 21.9 mph N/A   Overcast
4:15 PM 35.6 °F 26.6 °F 23.0 °F 60% 30.37 in 10.0 mi NW 13.8 mph 19.6 mph N/A   Overcast
4:35 PM 35.6 °F 25.9 °F 23.0 °F 60% 30.37 in 10.0 mi NW 16.1 mph 20.7 mph N/A   Overcast
4:55 PM 35.6 °F 28.6 °F 23.0 °F 60% 30.38 in 10.0 mi NW 9.2 mph 19.6 mph N/A   Overcast
5:15 PM 35.6 °F 28.0 °F 23.0 °F 60% 30.37 in 10.0 mi NW 10.4 mph 20.7 mph N/A   Overcast
5:35 PM 35.6 °F 28.0 °F 23.0 °F 60% 30.37 in 10.0 mi NW 10.4 mph - N/A   Overcast
5:55 PM 35.6 °F 28.0 °F 23.0 °F 60% 30.37 in 10.0 mi NW 10.4 mph - N/A   Scattered Clouds
6:15 PM 35.6 °F 28.0 °F 23.0 °F 60% 30.38 in 10.0 mi WNW 10.4 mph - N/A   Mostly Cloudy
6:35 PM 33.8 °F 26.4 °F 23.0 °F 65% 30.38 in 10.0 mi NW 9.2 mph - N/A   Scattered Clouds
6:55 PM 33.8 °F 27.7 °F 23.0 °F 65% 30.39 in 10.0 mi NW 6.9 mph - N/A   Clear
7:15 PM 33.8 °F 28.6 °F 23.0 °F 65% 30.39 in 10.0 mi NW 5.8 mph - N/A   Clear
7:35 PM 32.0 °F 28.7 °F 23.0 °F 69% 30.39 in 10.0 mi NNW 3.5 mph - N/A   Clear
7:55 PM 32.0 °F - 23.0 °F 69% 30.39 in 10.0 mi Calm Calm - N/A   Clear
8:15 PM 32.0 °F - 24.8 °F 75% 30.38 in 10.0 mi Calm Calm - N/A   Clear
8:35 PM 32.0 °F - 24.8 °F 75% 30.38 in 10.0 mi Calm Calm - N/A   Clear
8:55 PM 30.2 °F - 23.0 °F 75% 30.38 in 10.0 mi Calm Calm - N/A   Clear
9:15 PM 30.2 °F 26.7 °F 23.0 °F 75% 30.39 in 10.0 mi SW 3.5 mph - N/A   Clear
9:35 PM 30.2 °F - 24.8 °F 80% 30.39 in 10.0 mi Calm Calm - N/A   Clear
9:55 PM 30.2 °F - 23.0 °F 75% 30.39 in 10.0 mi Calm Calm - N/A   Clear
10:15 PM 30.2 °F - 23.0 °F 75% 30.39 in 10.0 mi Calm Calm - N/A   Clear
10:35 PM 30.2 °F - 26.6 °F 86% 30.40 in 10.0 mi Calm Calm - N/A   Clear
10:55 PM 30.2 °F - 26.6 °F 86% 30.40 in 10.0 mi Calm Calm - N/A   Clear
11:15 PM 28.4 °F - 26.6 °F 93% 30.40 in 10.0 mi Calm Calm - N/A   Clear
11:35 PM 28.4 °F - 26.6 °F 93% 30.40 in 10.0 mi Calm Calm - N/A   Clear
11:55 PM 30.2 °F - 26.6 °F 86% 30.40 in 10.0 mi Calm Calm - N/A   Clear